Flag for Germany Weather past 2 weeks in Weißenfels, Saxony-Anhalt, Germany

Now
56 °F

Passing clouds.


Feels Like: 56 °F
Forecast: 45 / 69 °F
Wind: 1 mph from South

Location: Leipzig-Schkeuditz

Current Time: Aug 21, 2014 at 10:22:05 PM

Latest Report: Aug 21, 2014 at 10:00 PM


Visibility: 34 mi

Pressure: 30.01 "Hg

Humidity: 64%

Dew point: 44 °F

Location of WeißenfelsLocation

Historic Weather in Weißenfels — Graph

°F

Weißenfels temperature yesterday

Maximum temperature yesterday: 64 °F (at 4:00 PM)
Minimum temperature yesterday: 49 °F (at 6:00 AM)
Average temperature yesterday: 56 °F

Past Weeks' High & Low Weather Summary

 TemperatureHumidityPressure
High83 °F (Aug 10, 6:00 PM)97% (Aug 14, 3:00 AM)30.03 "Hg (Aug 14, 3:00 AM)
Low48 °F (Aug 21, 6:00 AM)31% (Aug 12, 6:00 PM)29.63 "Hg (Aug 13, 7:00 PM)
Average63 °F69%29.88 "Hg
* Reported Aug 6 9:00 PM — Aug 21 9:00 PM, Weißenfels, Weather by CustomWeather, © 2014

Note: Actual official high and low records may vary slightly from our data, if they occured in-between our weather recording intervals... More about our weather records

Advertising

Weißenfels weather history for previous 24 hours

 ConditionsComfort  
Time TempWeatherWind HumidityBarometerVisibility
9:00 PM
Aug 21
59 °FPassing clouds.1 mph56%29.99 "Hg34 mi
8:00 PM62 °FScattered clouds.2 mph46%29.99 "Hg34 mi
7:00 PM65 °FPartly sunny.3 mph40%29.98 "Hg37 mi
6:00 PM66 °FScattered clouds.5 mph38%29.99 "Hg37 mi
4:00 PM66 °FScattered clouds.6 mph41%29.99 "Hg37 mi
3:00 PM66 °FScattered clouds.6 mph44%30.00 "Hg37 mi
2:00 PM64 °FScattered clouds.5 mph49%30.01 "Hg37 mi
1:00 PM64 °FScattered clouds.3 mph54%30.02 "Hg34 mi
12:00 PM62 °FPassing clouds.3 mph61%30.03 "Hg34 mi
10:00 AM57 °FScattered clouds.5 mph70%30.03 "Hg31 mi
9:00 AM53 °FPartly sunny.3 mph84%30.03 "Hg31 mi
8:00 AM52 °FPartly sunny.5 mph84%30.01 "Hg31 mi
7:00 AM49 °FPartly sunny.2 mph90%30.01 "Hg31 mi
6:00 AM48 °FPassing clouds.3 mph88%30.01 "Hg31 mi
5:00 AM48 °FPassing clouds.2 mph86%30.00 "Hg31 mi
4:00 AM49 °FPassing clouds.1 mph85%30.01 "Hg31 mi
3:00 AM50 °FPassing clouds.1 mph86%30.01 "Hg34 mi
2:00 AM50 °FPassing clouds.2 mph87%30.02 "Hg34 mi
1:00 AM50 °FPassing clouds.1 mph84%30.01 "Hg34 mi
12:00 AM51 °FPassing clouds.1 mph83%30.01 "Hg34 mi
10:00 PM
Aug 20
56 °FPassing clouds.3 mph66%30.01 "Hg34 mi
Weather by CustomWeather, © 2014

See weather overviewHow to use our weather pages